Location: Unspecified
(0.0000°N, 0.0000°E)
Time: 06:21:03
(UTC+00:00)

RS-8 - Pass Details

Date: 12 October 2022
Orbit: 1579 x 1660 km, 83.0° (Epoch: 09 December)

Event Time Altitude Azimuth Distance (km) Brightness Sun altitude
Rises 21:40:31 0° 225° (SW) 4,767 11.0 -57.7°
Reaches altitude 10° 21:46:22 10° 255° (WSW) 3,784 10.4 -59.1°
Maximum altitude 21:49:07 12° 273° (W) 3,655 10.2 -59.8°
Drops below altitude 10° 21:51:54 10° 291° (WNW) 3,790 10.3 -60.5°
Sets 21:57:53 0° 321° (NW) 4,786 10.7 -61.9°
